Regional Weather Roundup
Issued by NWS Portland, ME

Home | Current Version | Previous Version | Text Only | Print | Product List | Glossary On
Versions: 1 2 3 4 5 6 7 8 9 10 11 12 13 14 15 16 17 18 19 20 21 22 23 24 25 26 27 28 29 30 31 32 33 34 35 36 37 38 39 40 41 42 43 44 45 46 47 48 49 50
367
ASUS41 KGYX 241210
RWRGYX
WEATHER ROUNDUP FOR MAINE AND NEW HAMPSHIRE
NATIONAL WEATHER SERVICE GRAY ME
800 AM EDT FRI MAR 24 2017

MEZ002-005-006-010-012-015-018-020-021-024-026-027-029-241300-
MAINE

CITY           SKY/WX    TMP DP  RH WIND       PRES   REMARKS
PORTLAND       CLOUDY    28  10  46 CALM      30.45F
6HR MIN TEMP:  22; 6HR MAX TEMP:  28;

SANFORD        MOSUNNY   23  12  62 CALM      30.44F
BAR HARBOR     MOSUNNY   20  11  68 CALM      30.46F
WISCASSET      MOSUNNY   22  12  65 CALM      30.47F
6HR MIN TEMP:  16; 6HR MAX TEMP:  22;

ROCKLAND       MOSUNNY   23  13  65 SW3       30.46F
FRYEBURG       CLOUDY    26   4  38 S3        30.42S
6HR MIN TEMP:  19; 6HR MAX TEMP:  26;

LEWISTONAUBURN MOSUNNY   25   7  46 SE6       30.42F
AUGUSTA        MOSUNNY   22   5  48 S6        30.43F
6HR MIN TEMP:  19; 6HR MAX TEMP:  22;

WATERVILLE     CLOUDY    21   7  54 S5        30.39F
BANGOR         CLOUDY    20   6  55 S6        30.44F
6HR MIN TEMP:  14; 6HR MAX TEMP:  20;

GREENVILLE       N/A     17   3  54 CALM      30.28F
6HR MIN TEMP:  11; 6HR MAX TEMP:  18;

MILLINOCKET    CLOUDY    15   3  59 CALM      30.39F
6HR MIN TEMP:   9; 6HR MAX TEMP:  18;

HOULTON        CLOUDY    14  -1  51 S6        30.36F
6HR MIN TEMP:  -3; 6HR MAX TEMP:  14;

PRESQUE ISLE   MOSUNNY    6  -3  66 S3        30.35F
6HR MIN TEMP:  -2; 6HR MAX TEMP:   6;

FRENCHVILLE    CLOUDY     7  -8  50 S7        30.27F
6HR MIN TEMP:   7; 6HR MAX TEMP:  12;

CARIBOU        CLOUDY    10  -3  55 SE6       30.32F
6HR MIN TEMP:   4; 6HR MAX TEMP:  10;

$$

NHZ002-005-008-009-011-012-014-241300-
NEW HAMPSHIRE

CITY           SKY/WX    TMP DP  RH WIND       PRES   REMARKS
PORTSMOUTH     PTSUNNY   28  12  51 CALM      30.45F
ROCHESTER      MOSUNNY   26   8  46 CALM      30.43F
6HR MIN TEMP:  23; 6HR MAX TEMP:  26;

NASHUA         CLOUDY    28  15  58 SE3       30.45F
MANCHESTER     CLOUDY    28   8  43 S6        30.43F
6HR MIN TEMP:  26; 6HR MAX TEMP:  28;

CONCORD        PTSUNNY   28  11  48 S7        30.43F
6HR MIN TEMP:  24; 6HR MAX TEMP:  28;

LACONIA        CLOUDY    25  14  63 CALM      30.42F
PLYMOUTH       CLOUDY    24  12  60 CALM      30.43R
BERLIN         CLOUDY    17   5  59 CALM      30.33R
6HR MIN TEMP:   6; 6HR MAX TEMP:  17;

WHITEFIELD     CLOUDY    18   7  62 CALM      30.33S
6HR MIN TEMP:   9; 6HR MAX TEMP:  18;

JAFFREY        CLOUDY    29   6  38 S5        30.39F
6HR MIN TEMP:  23; 6HR MAX TEMP:  29;

KEENE          CLOUDY    28  17  63 CALM      30.42F
LEBANON        CLOUDY    26  14  60 CALM      30.40R
6HR MIN TEMP:  21; 6HR MAX TEMP:  26;

MT WASHINGTON  NOT AVBL
$$

VTZ005-007-008-241300-
VERMONT

CITY           SKY/WX    TMP DP  RH WIND       PRES   REMARKS
ST JOHNSBURY     N/A     20  10  65 MISG      30.35R
MONTPELIER     CLOUDY    26   7  44 S8        30.36R
BURLINGTON     LGT SNOW  30  18  60 S17G28    30.31F VSB 1   WCI  18
$$

MAZ007-012-024-CTZ003-RIZ002-NYZ038-NYZ072-241300-
SOUTHERN NEW ENGLAND AND NY

CITY           SKY/WX    TMP DP  RH WIND       PRES   REMARKS
BOSTON         CLOUDY    31  14  49 S8        30.49F
WORCESTER      CLOUDY    27   9  46 SW9       30.41F
NANTUCKET      CLOUDY    35  20  54 S8        30.54S
PROVIDENCE     CLOUDY    31  15  52 S3        30.51S
HARTFORD       CLOUDY    31  21  66 S6        30.45S
ALBANY         CLOUDY    34   9  35 S12G18    30.35F
NEW YORK CITY  CLOUDY    39  25  57 SW9       30.47F
$$

ANZ081-ANZ082-ANZ150-NHZ014-MEZ023>029-241300-
COASTAL MARINE OBSERVATIONS

STATION/POSITION TIME  TEMP    WIND        PRES    WAVE
                       AIR SEA DIR/SP/G            HT/PER
                 (UTC) (F)     (DEG/KT/KT) (MB)    (FT/S)
MOUNT DESERT ROC 1200   30                 1032.1F
MATINICUS ROCK   1100   30     200/  8/  9 1031.8F
ISLE OF SHOALS   1100   34     150/ 12/ 13 1032.1F
JEFFREYS LEDGE   1106      41                N/A     1/ 4
CASHES LEDGE BUO 1050   31 39              1033.2    2/ 4
GEORGES BANK BUO 1050   35 40              1033.7    6/ 8
$$

.............KEY..............
   WCI - WIND CHILL
   TC  - TEMPERATURE IN CELSIUS
   VSB - VISIBILITY IN MILES
   HX  - HEAT INDEX
   FAIR- INDICATES FEW OR NO CLOUDS BELOW 12,000 FT, WITH NO
         SIGNIFICANT WEATHER AND/OR OBSTRUCTIONS TO VISIBILITY.






USA.gov is the U.S. government's official web portal to all federal, state and local government web resources and services.